Columbia Owens, SC

6:41 PM EST on November 12, 2019 (GMT -0500)
Columbia Owens Downtown

Weather History for KCUB - September, 2019

Change the Weather History Date:

Thursday, September 12, 2019

  Actual Average Record
Temperature  
Mean Temperature 85 °F 77 °F  
Max Temperature 97 °F 87 °F 97 °F (2019)
Min Temperature 72 °F 67 °F 61 °F (1999)
Degree Days  
Heating Degree Days 0 0  
Month to date heating degree days 0 0  
Since 1 July heating degree days 0 0  
Cooling Degree Days 20 12  
Month to date cooling degree days 224 159  
Year to date cooling degree days 2347 1977  
Growing Degree Days 34 (Base 50)    
Moisture  
Dew Point 70 °F    
Average Humidity 64    
Maximum Humidity 93    
Minimum Humidity 42    
Precipitation  
Precipitation 0.00 in 0.14 in 0.54 in (2017)
Month to date precipitation 0.61 1.68  
Year to date precipitation 23.79 33.53  
Sea Level Pressure  
Sea Level Pressure 30.11 in    
Wind  
Wind Speed 2 mph (SSW)    
Max Wind Speed 10 mph    
Max Gust Speed 14 mph    
Visibility 10 miles    
Events      
T = Trace of Precipitation, MM = Missing Value Source: NWS Daily Summary

Daily Weather History Graph

Daily Weather History Graph

Search for Another Location

Airport or City:

Astronomy

Sep. 12, 2019 Rise Set
Actual Time 7:05 AM EDT 7:35 PM EDT
Civil Twilight 6:39 AM EDT 8:00 PM EDT
Nautical Twilight 6:10 AM EDT 8:29 PM EDT
Astronomical Twilight 5:40 AM EDT 8:59 PM EDT
Moon 7:12 PM EDT 5:31 AM EDT
Length of Visible Light 13h 20m
Length of Day
12h 30m
Waxing Gibbous, 98% of the Moon is Illuminated
Sep 12
Waxing Gibbous
Sep 14
Full
Sep 21
Last Quarter
Sep 28
New
Oct 5
First Quarter

Hourly Weather History & Observations

Time (EDT) Temp. Heat Index Dew Point Humidity Pressure Visibility Wind Dir Wind Speed Gust Speed Precip Events Conditions
12:53 AM 78.1 °F - 70.0 °F 76% 30.14 in 10.0 mi Calm Calm - N/A   Clear
2:53 AM 75.9 °F - 70.0 °F 82% 30.12 in 10.0 mi Calm Calm - N/A   Clear
3:53 AM 73.9 °F - 70.0 °F 87% 30.11 in 9.0 mi Calm Calm - N/A   Clear
4:53 AM 73.9 °F - 70.0 °F 87% 30.11 in 8.0 mi Calm Calm - N/A   Clear
5:53 AM 73.0 °F - 70.0 °F 90% 30.13 in 8.0 mi Calm Calm - N/A   Clear
6:53 AM 72.0 °F - 69.1 °F 91% 30.14 in 7.0 mi Calm Calm - N/A   Clear
8:53 AM 78.1 °F - 71.1 °F 79% 30.17 in 8.0 mi Calm Calm - N/A   Clear
9:53 AM 82.0 °F 85.5 °F 69.1 °F 65% 30.17 in 10.0 mi WSW 4.6 mph - N/A   Clear
10:53 AM 86.0 °F 90.1 °F 69.1 °F 57% 30.17 in 10.0 mi Variable 4.6 mph - N/A   Clear
11:53 AM 89.1 °F 93.7 °F 69.1 °F 52% 30.16 in 10.0 mi West 3.5 mph - N/A   Clear
12:53 PM 90.0 °F 94.5 °F 69.1 °F 50% 30.13 in 10.0 mi Variable 3.5 mph - N/A   Clear
1:53 PM 93.9 °F 100.3 °F 70.0 °F 46% 30.11 in 10.0 mi SSW 9.2 mph - N/A   Scattered Clouds
2:53 PM 96.1 °F 101.6 °F 69.1 °F 41% 30.08 in 10.0 mi Variable 5.8 mph - N/A   Mostly Cloudy
3:53 PM 96.1 °F 102.9 °F 70.0 °F 43% 30.06 in 10.0 mi Calm Calm - N/A   Mostly Cloudy
4:53 PM 93.9 °F 99.1 °F 69.1 °F 44% 30.05 in 10.0 mi South 5.8 mph - N/A   Clear
5:53 PM 93.9 °F 100.3 °F 70.0 °F 46% 30.04 in 10.0 mi Variable 6.9 mph - N/A   Clear
6:53 PM 91.9 °F 97.4 °F 70.0 °F 48% 30.05 in 10.0 mi Variable 4.6 mph - N/A   Partly Cloudy
7:53 PM 90.0 °F 96.4 °F 71.1 °F 54% 30.08 in 10.0 mi Calm Calm - N/A   Mostly Cloudy
8:53 PM 86.0 °F 92.2 °F 72.0 °F 63% 30.09 in 10.0 mi Calm Calm - N/A   Clear
9:53 PM 84.0 °F 89.6 °F 72.0 °F 67% 30.11 in 10.0 mi ESE 3.5 mph - N/A   Clear
10:53 PM 82.9 °F 88.0 °F 72.0 °F 69% 30.11 in 10.0 mi Calm Calm - N/A   Partly Cloudy
11:53 PM 81.0 °F 85.2 °F 72.0 °F 74% 30.11 in 10.0 mi Variable 3.5 mph - N/A   Clear